Terminal Aerodrome Forecast
Issued by NWS

Home | Current Version | Previous Version | Graphics & Text | Print | Product List | Glossary On
Versions: 1 2 3 4 5 6 7 8 9 10 11 12 13 14 15 16 17 18 19 20 21
347
FTUS43 KABR 041602 AAC
TAFATY
TAF AMD
KATY 041602Z 0416/0512 36015KT P6SM SKC
     FM042100 27007KT P6SM SCT030 SCT150
     FM050200 21006KT P6SM BKN150=

USA.gov is the U.S. government's official web portal to all federal, state and local government web resources and services.